This demonstration page uses our WeatherBlox Daily Observations layout. Learn more.

Left ArrowRight Arrow

39.08367, -84.50855

Hourly Observations for August 4, 2020

Temp ( °F °C ) Dew Point ( °F °C ) Humidity (%) Winds ( mph kmh ) Pressure ( in mb ) Visibility ( mi km ) Precip ( " mm )
12:53 am 00:53 Clear with Mist and Fog 64 17.8 63 17.2 96 96 N N/A 29.94 1014 3 5 N/A
12:56 am 00:56 Clear with Mist and Fog 64 17.8 63 17.2 96 96 N N/A 29.95 1014 2 3 N/A
1:07 am 01:07 Clear with Mist and Fog 65 18.3 64 17.8 97 97 N N/A 29.94 1014 3 5 N/A
1:53 am 01:53 Clear 64 17.8 63 17.2 96 96 N N/A 29.93 1014 10 16 N/A
2:53 am 02:53 Clear 63 17.2 62 16.7 97 97 N N/A 29.92 1013 8 13 N/A
3:53 am 03:53 Clear 64 17.8 62 16.7 93 93 N N/A 29.91 1013 10 16 N/A
4:44 am 04:44 Partly Cloudy 65 18.3 63 17.2 93 93 N N/A 29.91 1013 10 16 N/A
4:53 am 04:53 Mostly Clear 65 18.3 62 16.7 90 90 N N/A 29.91 1013 10 16 N/A
5:11 am 05:11 Mostly Cloudy 63 17.2 61 16.1 93 93 N N/A 29.92 1013 7 11 N/A
5:53 am 05:53 Cloudy 65 18.3 63 17.2 93 93 N N/A 29.93 1013 9 14 N/A
6:53 am 06:53 Cloudy with Mist and Fog 66 18.9 63 17.2 90 90 NW 6 9 29.94 1014 6 10 N/A
7:53 am 07:53 Cloudy 67 19.4 64 17.8 91 91 N N/A 29.95 1014 8 13 N/A
8:53 am 08:53 Cloudy 68 20 64 17.8 87 87 N N/A 29.95 1014 10 16 N/A
9:53 am 09:53 Cloudy 71 21.7 64 17.8 79 79 NW 5 7 29.96 1015 10 16 N/A
10:53 am 10:53 Cloudy 71 21.7 64 17.8 79 79 WNW 7 11 29.98 1015 10 16 N/A
11:53 am 11:53 Cloudy 73 22.8 64 17.8 74 74 WNW 7 11 29.98 1015 10 16 N/A
12:53 pm 12:53 Mostly Cloudy 75 23.9 63 17.2 66 66 VRB 3 6 29.97 1015 10 16 N/A
1:53 pm 13:53 Mostly Cloudy 77 25 62 16.7 60 60 NNW 5 7 29.97 1015 10 16 N/A
2:53 pm 14:53 Mostly Cloudy 78 25.6 62 16.7 58 58 W 8 13 29.97 1015 10 16 N/A
3:53 pm 15:53 Mostly Cloudy 79 26.1 62 16.7 56 56 W 7 11 29.97 1015 10 16 N/A
4:53 pm 16:53 Mostly Cloudy 79 26.1 61 16.1 54 54 NNW 7 11 29.97 1015 10 16 N/A
5:53 pm 17:53 Partly Cloudy 77 25 60 15.6 56 56 WNW 9 15 29.98 1015 10 16 N/A
6:53 pm 18:53 Partly Cloudy 77 25 58 14.4 52 52 NW 10 17 29.98 1015 10 16 N/A
7:53 pm 19:53 Mostly Sunny 75 23.9 57 13.9 54 54 VRB 7 11 29.99 1016 10 16 N/A
8:53 pm 20:53 Clear 72 22.2 57 13.9 59 59 NW 5 7 30.00 1016 10 16 N/A
9:53 pm 21:53 Mostly Clear 67 19.4 60 15.6 79 79 N N/A 30.04 1017 10 16 N/A
10:53 pm 22:53 Clear 68 20 57 13.9 68 68 NNW 6 9 30.05 1018 10 16 N/A
11:53 pm 23:53 Clear 64 17.8 59 15 84 84 N N/A 30.06 1018 10 16 N/A

Powered by AerisWeather